GFSGL_prec_pwat_060.txt.gz
Precipitable_Water
0.37 0.37 0.36 0.35 0.37 0.37 0.34 0.33 0.32 0.31 0.30 0.29 0.30 0.30 0.31 0.32 0.34 0.34 0.35 0.37 0.37 0.38 0.40 0.40 0.40 0.42 0.39 0.40 0.40 0.39 0.37 0.36 0.29 0.31 0.39 0.41 0.42 0.41 0.41 0.43 0.45 0.50 0.58
0.35 0.35 0.36 0.36 0.35 0.33 0.32 0.31 0.32 0.29 0.30 0.30 0.30 0.31 0.32 0.34 0.36 0.37 0.38 0.40 0.41 0.41 0.42 0.42 0.42 0.43 0.41 0.43 0.42 0.39 0.37 0.39 0.36 0.29 0.37 0.39 0.41 0.44 0.42 0.42 0.42 0.48 0.54
0.36 0.35 0.35 0.34 0.32 0.31 0.31 0.30 0.30 0.30 0.30 0.31 0.32 0.33 0.35 0.37 0.40 0.42 0.43 0.44 0.44 0.42 0.42 0.42 0.42 0.43 0.43 0.45 0.43 0.40 0.40 0.42 0.41 0.37 0.36 0.42 0.43 0.47 0.48 0.48 0.51 0.49 0.53
0.36 0.35 0.33 0.33 0.31 0.29 0.29 0.29 0.29 0.30 0.31 0.32 0.35 0.37 0.40 0.42 0.45 0.46 0.47 0.47 0.49 0.50 0.51 0.52 0.52 0.51 0.47 0.46 0.43 0.42 0.42 0.43 0.43 0.39 0.39 0.42 0.44 0.45 0.49 0.45 0.45 0.51 0.46
0.36 0.34 0.32 0.30 0.29 0.30 0.28 0.28 0.29 0.31 0.34 0.37 0.39 0.42 0.45 0.47 0.50 0.52 0.54 0.54 0.54 0.55 0.56 0.56 0.56 0.56 0.56 0.54 0.46 0.43 0.46 0.45 0.41 0.38 0.36 0.39 0.39 0.43 0.43 0.49 0.49 0.50 0.48
0.34 0.31 0.29 0.29 0.29 0.28 0.27 0.27 0.30 0.34 0.37 0.41 0.44 0.47 0.49 0.53 0.57 0.58 0.59 0.59 0.61 0.60 0.58 0.59 0.60 0.61 0.59 0.57 0.55 0.57 0.60 0.50 0.47 0.42 0.40 0.39 0.41 0.44 0.53 0.54 0.53 0.49 0.43
0.30 0.28 0.29 0.29 0.27 0.26 0.27 0.29 0.32 0.36 0.42 0.46 0.49 0.52 0.53 0.57 0.59 0.60 0.63 0.63 0.61 0.62 0.62 0.61 0.60 0.61 0.59 0.56 0.55 0.52 0.51 0.53 0.53 0.53 0.49 0.49 0.48 0.49 0.55 0.58 0.59 0.54 0.49
0.28 0.28 0.29 0.27 0.26 0.27 0.28 0.31 0.35 0.41 0.46 0.49 0.52 0.55 0.56 0.57 0.60 0.61 0.62 0.63 0.62 0.62 0.62 0.62 0.60 0.58 0.57 0.55 0.53 0.48 0.45 0.46 0.47 0.49 0.51 0.52 0.54 0.58 0.59 0.61 0.62 0.60 0.68
0.27 0.28 0.28 0.27 0.27 0.27 0.30 0.34 0.40 0.45 0.50 0.53 0.55 0.56 0.56 0.56 0.58 0.60 0.60 0.60 0.60 0.61 0.63 0.63 0.60 0.57 0.56 0.57 0.54 0.46 0.45 0.44 0.49 0.50 0.53 0.52 0.57 0.62 0.63 0.65 0.58 0.58 0.58
0.28 0.29 0.29 0.28 0.28 0.30 0.35 0.39 0.44 0.50 0.54 0.56 0.55 0.57 0.57 0.55 0.58 0.60 0.62 0.62 0.59 0.60 0.60 0.59 0.60 0.58 0.56 0.54 0.49 0.46 0.43 0.42 0.45 0.51 0.55 0.59 0.60 0.62 0.66 0.68 0.64 0.59 0.58
0.31 0.29 0.28 0.30 0.31 0.35 0.38 0.43 0.49 0.53 0.55 0.55 0.54 0.55 0.56 0.58 0.59 0.59 0.63 0.63 0.62 0.58 0.56 0.56 0.58 0.56 0.54 0.51 0.52 0.49 0.43 0.48 0.51 0.56 0.54 0.59 0.60 0.64 0.70 0.69 0.68 0.67 0.58
0.31 0.29 0.29 0.31 0.33 0.38 0.41 0.47 0.53 0.54 0.53 0.52 0.52 0.53 0.56 0.58 0.57 0.60 0.63 0.63 0.64 0.60 0.59 0.58 0.56 0.52 0.48 0.49 0.48 0.50 0.54 0.55 0.56 0.53 0.52 0.54 0.57 0.60 0.63 0.70 0.71 0.73 0.68
0.30 0.29 0.30 0.32 0.36 0.41 0.45 0.51 0.52 0.53 0.51 0.50 0.50 0.51 0.52 0.55 0.56 0.59 0.60 0.61 0.58 0.56 0.56 0.54 0.50 0.45 0.47 0.48 0.52 0.57 0.59 0.56 0.52 0.50 0.50 0.53 0.58 0.62 0.66 0.67 0.71 0.70 0.66
0.30 0.30 0.30 0.32 0.36 0.43 0.51 0.54 0.52 0.51 0.50 0.50 0.50 0.49 0.52 0.52 0.54 0.56 0.57 0.57 0.56 0.57 0.52 0.49 0.47 0.48 0.48 0.49 0.52 0.54 0.58 0.59 0.54 0.49 0.52 0.54 0.57 0.63 0.63 0.65 0.65 0.66 0.61
0.30 0.30 0.31 0.33 0.38 0.47 0.52 0.53 0.52 0.54 0.55 0.52 0.52 0.52 0.49 0.48 0.53 0.56 0.56 0.56 0.55 0.53 0.53 0.47 0.46 0.43 0.44 0.45 0.50 0.51 0.54 0.58 0.54 0.55 0.54 0.52 0.57 0.58 0.58 0.62 0.62 0.59 0.56
0.28 0.29 0.31 0.35 0.43 0.49 0.50 0.51 0.56 0.57 0.57 0.57 0.57 0.56 0.55 0.56 0.55 0.55 0.55 0.56 0.56 0.52 0.46 0.41 0.40 0.42 0.40 0.43 0.46 0.48 0.53 0.54 0.55 0.54 0.52 0.52 0.53 0.52 0.52 0.54 0.53 0.50 0.50
0.29 0.30 0.35 0.40 0.47 0.49 0.49 0.49 0.47 0.53 0.56 0.56 0.56 0.56 0.53 0.52 0.52 0.53 0.53 0.53 0.54 0.55 0.46 0.42 0.37 0.40 0.40 0.42 0.44 0.46 0.48 0.55 0.59 0.56 0.53 0.51 0.50 0.49 0.47 0.47 0.46 0.45 0.43
0.30 0.34 0.38 0.46 0.49 0.50 0.50 0.50 0.50 0.48 0.47 0.48 0.53 0.55 0.53 0.50 0.48 0.49 0.51 0.50 0.48 0.49 0.49 0.47 0.42 0.39 0.42 0.42 0.41 0.42 0.45 0.48 0.51 0.53 0.52 0.49 0.48 0.46 0.42 0.41 0.42 0.43 0.40
0.32 0.35 0.43 0.49 0.50 0.51 0.51 0.51 0.50 0.49 0.48 0.48 0.49 0.50 0.49 0.43 0.43 0.45 0.49 0.46 0.45 0.45 0.46 0.47 0.48 0.46 0.43 0.44 0.44 0.44 0.46 0.45 0.46 0.47 0.47 0.47 0.46 0.43 0.42 0.41 0.44 0.43 0.42
0.34 0.38 0.47 0.49 0.49 0.49 0.50 0.49 0.49 0.48 0.48 0.47 0.46 0.42 0.44 0.39 0.39 0.43 0.46 0.46 0.45 0.45 0.46 0.46 0.48 0.49 0.46 0.45 0.46 0.45 0.44 0.45 0.43 0.43 0.44 0.44 0.43 0.44 0.44 0.44 0.44 0.44 0.44
0.34 0.41 0.48 0.49 0.48 0.49 0.49 0.49 0.49 0.48 0.47 0.45 0.43 0.44 0.43 0.41 0.43 0.45 0.45 0.46 0.46 0.46 0.47 0.47 0.48 0.49 0.48 0.46 0.45 0.45 0.45 0.45 0.44 0.43 0.43 0.42 0.40 0.42 0.44 0.49 0.48 0.50 0.50
0.35 0.42 0.47 0.47 0.48 0.49 0.49 0.50 0.49 0.48 0.47 0.40 0.41 0.42 0.43 0.43 0.46 0.46 0.47 0.47 0.48 0.49 0.50 0.49 0.49 0.49 0.50 0.47 0.46 0.44 0.44 0.44 0.45 0.44 0.40 0.39 0.40 0.43 0.46 0.48 0.50 0.52 0.52
0.35 0.43 0.46 0.47 0.48 0.49 0.49 0.49 0.49 0.48 0.46 0.40 0.41 0.41 0.42 0.45 0.47 0.47 0.48 0.48 0.49 0.50 0.52 0.52 0.51 0.51 0.51 0.50 0.49 0.47 0.44 0.43 0.44 0.45 0.42 0.41 0.41 0.41 0.46 0.50 0.52 0.51 0.52
0.36 0.44 0.46 0.47 0.47 0.48 0.48 0.48 0.49 0.49 0.45 0.43 0.43 0.43 0.45 0.47 0.48 0.48 0.50 0.50 0.51 0.52 0.54 0.54 0.54 0.53 0.52 0.50 0.49 0.47 0.46 0.46 0.47 0.46 0.47 0.44 0.42 0.42 0.44 0.46 0.55 0.55 0.55
0.36 0.43 0.46 0.46 0.46 0.47 0.47 0.48 0.48 0.48 0.45 0.44 0.44 0.46 0.47 0.48 0.48 0.50 0.51 0.52 0.53 0.54 0.56 0.57 0.58 0.59 0.60 0.56 0.53 0.48 0.46 0.47 0.48 0.50 0.50 0.49 0.45 0.43 0.47 0.49 0.53 0.55 0.55
0.36 0.43 0.47 0.47 0.47 0.47 0.47 0.47 0.47 0.47 0.44 0.44 0.45 0.46 0.47 0.46 0.49 0.52 0.53 0.53 0.55 0.56 0.58 0.61 0.63 0.64 0.66 0.68 0.66 0.62 0.57 0.53 0.54 0.57 0.58 0.56 0.53 0.53 0.58 0.60 0.60 0.62 0.62

GFSGL_prec_pwat_063.txt.gz
Precipitable_Water
0.38 0.39 0.37 0.35 0.36 0.36 0.34 0.33 0.33 0.31 0.29 0.29 0.29 0.29 0.30 0.31 0.33 0.34 0.35 0.36 0.37 0.38 0.40 0.41 0.41 0.44 0.43 0.44 0.44 0.42 0.40 0.39 0.31 0.34 0.37 0.38 0.38 0.41 0.42 0.45 0.48 0.44 0.41
0.37 0.35 0.36 0.37 0.36 0.35 0.34 0.31 0.29 0.28 0.29 0.30 0.30 0.31 0.31 0.33 0.36 0.37 0.38 0.40 0.41 0.42 0.43 0.44 0.44 0.45 0.44 0.43 0.43 0.42 0.42 0.41 0.37 0.34 0.36 0.36 0.37 0.40 0.41 0.42 0.42 0.43 0.40
0.37 0.37 0.37 0.36 0.34 0.32 0.29 0.29 0.29 0.28 0.28 0.30 0.31 0.32 0.34 0.37 0.39 0.42 0.43 0.45 0.46 0.47 0.48 0.48 0.48 0.48 0.48 0.49 0.50 0.48 0.47 0.46 0.44 0.39 0.36 0.40 0.42 0.44 0.43 0.44 0.45 0.44 0.45
0.37 0.37 0.35 0.34 0.31 0.28 0.29 0.28 0.27 0.28 0.28 0.30 0.33 0.35 0.39 0.42 0.44 0.46 0.48 0.50 0.52 0.53 0.53 0.53 0.53 0.53 0.53 0.53 0.52 0.51 0.50 0.47 0.44 0.41 0.39 0.39 0.43 0.46 0.47 0.41 0.38 0.45 0.43
0.36 0.35 0.34 0.29 0.29 0.28 0.27 0.27 0.28 0.28 0.30 0.34 0.36 0.39 0.44 0.47 0.49 0.51 0.55 0.56 0.56 0.55 0.57 0.58 0.59 0.59 0.59 0.59 0.55 0.53 0.52 0.49 0.44 0.42 0.41 0.40 0.40 0.40 0.39 0.45 0.43 0.43 0.45
0.35 0.33 0.29 0.28 0.28 0.28 0.27 0.27 0.28 0.30 0.33 0.36 0.39 0.44 0.47 0.50 0.54 0.58 0.59 0.58 0.58 0.58 0.58 0.60 0.63 0.64 0.66 0.64 0.65 0.63 0.59 0.54 0.47 0.47 0.48 0.40 0.42 0.42 0.43 0.43 0.45 0.42 0.38
0.34 0.29 0.28 0.29 0.27 0.27 0.28 0.28 0.30 0.32 0.36 0.39 0.44 0.48 0.50 0.53 0.56 0.59 0.60 0.59 0.58 0.59 0.60 0.61 0.61 0.64 0.63 0.62 0.63 0.61 0.61 0.62 0.62 0.53 0.46 0.47 0.44 0.49 0.50 0.45 0.46 0.46 0.45
0.29 0.29 0.29 0.29 0.28 0.28 0.28 0.29 0.32 0.36 0.38 0.42 0.47 0.52 0.53 0.56 0.58 0.58 0.59 0.60 0.58 0.59 0.60 0.62 0.61 0.61 0.62 0.61 0.58 0.56 0.55 0.55 0.53 0.51 0.55 0.55 0.54 0.56 0.55 0.52 0.51 0.53 0.56
0.29 0.29 0.30 0.30 0.28 0.28 0.28 0.31 0.35 0.38 0.41 0.46 0.52 0.54 0.55 0.55 0.58 0.59 0.59 0.59 0.58 0.60 0.64 0.63 0.62 0.60 0.60 0.61 0.57 0.53 0.52 0.52 0.54 0.51 0.51 0.50 0.50 0.52 0.54 0.55 0.52 0.53 0.51
0.29 0.30 0.31 0.30 0.30 0.29 0.31 0.34 0.38 0.42 0.46 0.51 0.54 0.55 0.56 0.55 0.57 0.59 0.59 0.58 0.57 0.60 0.58 0.61 0.64 0.62 0.60 0.60 0.56 0.54 0.49 0.46 0.48 0.48 0.48 0.49 0.55 0.57 0.58 0.56 0.56 0.51 0.54
0.31 0.32 0.31 0.31 0.31 0.33 0.35 0.38 0.41 0.46 0.51 0.53 0.53 0.54 0.55 0.56 0.58 0.57 0.58 0.58 0.58 0.56 0.56 0.56 0.62 0.62 0.59 0.58 0.57 0.52 0.46 0.47 0.46 0.46 0.45 0.49 0.51 0.57 0.57 0.59 0.63 0.58 0.56
0.34 0.32 0.31 0.31 0.32 0.34 0.36 0.40 0.45 0.51 0.51 0.51 0.51 0.51 0.54 0.57 0.54 0.55 0.56 0.58 0.62 0.58 0.53 0.55 0.54 0.53 0.52 0.50 0.49 0.50 0.51 0.52 0.51 0.50 0.50 0.53 0.53 0.55 0.56 0.60 0.67 0.68 0.68
0.34 0.31 0.31 0.31 0.32 0.35 0.38 0.42 0.49 0.51 0.50 0.49 0.49 0.49 0.50 0.53 0.52 0.55 0.56 0.57 0.59 0.57 0.58 0.53 0.48 0.46 0.47 0.49 0.50 0.52 0.54 0.55 0.53 0.49 0.51 0.51 0.57 0.58 0.63 0.68 0.71 0.71 0.73
0.33 0.30 0.29 0.29 0.33 0.37 0.43 0.51 0.50 0.49 0.48 0.48 0.48 0.48 0.50 0.51 0.51 0.55 0.54 0.55 0.56 0.56 0.59 0.53 0.51 0.51 0.48 0.48 0.49 0.50 0.54 0.56 0.54 0.51 0.51 0.56 0.60 0.61 0.62 0.64 0.63 0.63 0.66
0.32 0.29 0.28 0.31 0.34 0.40 0.49 0.50 0.50 0.53 0.53 0.50 0.50 0.51 0.48 0.47 0.50 0.53 0.53 0.51 0.53 0.55 0.52 0.53 0.48 0.45 0.44 0.44 0.47 0.48 0.51 0.54 0.53 0.54 0.54 0.54 0.56 0.58 0.60 0.64 0.64 0.65 0.57
0.30 0.28 0.29 0.34 0.39 0.47 0.49 0.49 0.54 0.55 0.55 0.56 0.56 0.55 0.53 0.50 0.50 0.48 0.50 0.51 0.52 0.54 0.51 0.43 0.42 0.43 0.42 0.44 0.45 0.47 0.52 0.51 0.55 0.52 0.53 0.54 0.53 0.56 0.58 0.59 0.64 0.61 0.58
0.29 0.29 0.32 0.37 0.45 0.47 0.48 0.47 0.45 0.50 0.54 0.54 0.54 0.52 0.52 0.45 0.44 0.45 0.48 0.50 0.50 0.50 0.47 0.46 0.40 0.41 0.41 0.44 0.45 0.48 0.49 0.53 0.55 0.53 0.54 0.54 0.57 0.57 0.56 0.53 0.56 0.58 0.58
0.30 0.31 0.34 0.41 0.48 0.48 0.48 0.48 0.48 0.47 0.45 0.47 0.52 0.47 0.47 0.43 0.44 0.47 0.49 0.48 0.44 0.46 0.46 0.45 0.45 0.39 0.42 0.42 0.44 0.46 0.51 0.53 0.54 0.53 0.53 0.54 0.54 0.52 0.51 0.51 0.51 0.51 0.51
0.30 0.32 0.37 0.46 0.49 0.49 0.49 0.49 0.49 0.48 0.47 0.47 0.44 0.43 0.45 0.45 0.46 0.48 0.48 0.45 0.43 0.43 0.44 0.45 0.46 0.45 0.42 0.43 0.43 0.46 0.49 0.50 0.54 0.54 0.54 0.52 0.51 0.49 0.47 0.47 0.47 0.46 0.48
0.31 0.34 0.39 0.47 0.48 0.48 0.48 0.48 0.47 0.47 0.46 0.42 0.41 0.39 0.43 0.45 0.44 0.44 0.46 0.45 0.44 0.44 0.44 0.45 0.46 0.47 0.44 0.44 0.44 0.45 0.45 0.48 0.49 0.50 0.50 0.51 0.49 0.46 0.43 0.42 0.43 0.44 0.44
0.31 0.34 0.41 0.47 0.47 0.47 0.48 0.47 0.47 0.47 0.44 0.41 0.41 0.43 0.46 0.46 0.45 0.45 0.45 0.45 0.45 0.45 0.45 0.45 0.46 0.47 0.47 0.44 0.43 0.44 0.44 0.44 0.46 0.45 0.46 0.47 0.47 0.43 0.46 0.45 0.44 0.45 0.45
0.31 0.35 0.42 0.46 0.47 0.47 0.47 0.48 0.48 0.47 0.44 0.43 0.44 0.46 0.48 0.47 0.46 0.46 0.46 0.47 0.48 0.48 0.49 0.48 0.47 0.47 0.48 0.45 0.44 0.43 0.42 0.43 0.44 0.44 0.43 0.45 0.44 0.41 0.45 0.47 0.46 0.45 0.45
0.31 0.35 0.42 0.46 0.47 0.47 0.47 0.47 0.47 0.47 0.44 0.45 0.46 0.47 0.48 0.47 0.47 0.47 0.47 0.49 0.50 0.50 0.51 0.50 0.48 0.47 0.48 0.47 0.45 0.44 0.42 0.43 0.46 0.47 0.43 0.41 0.39 0.38 0.43 0.45 0.49 0.47 0.48
0.31 0.35 0.43 0.46 0.46 0.46 0.46 0.46 0.47 0.46 0.45 0.45 0.46 0.47 0.47 0.47 0.48 0.48 0.50 0.52 0.52 0.53 0.54 0.54 0.52 0.49 0.48 0.47 0.45 0.44 0.45 0.45 0.47 0.47 0.46 0.41 0.39 0.40 0.43 0.47 0.50 0.50 0.49
0.32 0.36 0.44 0.45 0.45 0.45 0.45 0.46 0.46 0.44 0.45 0.45 0.44 0.45 0.46 0.48 0.49 0.50 0.52 0.53 0.55 0.56 0.57 0.58 0.58 0.56 0.53 0.49 0.46 0.43 0.43 0.44 0.44 0.46 0.47 0.47 0.42 0.42 0.43 0.46 0.51 0.53 0.51
0.32 0.37 0.45 0.46 0.46 0.46 0.46 0.45 0.45 0.44 0.43 0.42 0.43 0.44 0.47 0.49 0.50 0.52 0.53 0.55 0.56 0.58 0.60 0.62 0.63 0.64 0.63 0.59 0.52 0.47 0.44 0.43 0.45 0.46 0.47 0.46 0.44 0.43 0.43 0.43 0.49 0.53 0.54

GFSGL_prec_pwat_069.txt.gz
Precipitable_Water
0.39 0.41 0.41 0.40 0.41 0.42 0.41 0.40 0.39 0.37 0.34 0.31 0.30 0.30 0.29 0.29 0.30 0.30 0.32 0.34 0.35 0.37 0.39 0.40 0.40 0.43 0.43 0.44 0.46 0.46 0.45 0.45 0.38 0.40 0.45 0.47 0.45 0.44 0.45 0.46 0.45 0.45 0.46
0.40 0.39 0.39 0.40 0.41 0.39 0.38 0.38 0.36 0.32 0.31 0.30 0.29 0.29 0.29 0.29 0.31 0.33 0.34 0.37 0.38 0.38 0.40 0.42 0.43 0.46 0.46 0.49 0.50 0.49 0.49 0.50 0.47 0.41 0.45 0.46 0.46 0.47 0.45 0.45 0.46 0.45 0.46
0.37 0.36 0.37 0.37 0.38 0.37 0.36 0.34 0.32 0.31 0.30 0.30 0.30 0.29 0.30 0.32 0.34 0.37 0.38 0.39 0.41 0.43 0.44 0.45 0.46 0.48 0.49 0.51 0.53 0.52 0.52 0.52 0.51 0.47 0.45 0.50 0.48 0.49 0.47 0.47 0.45 0.45 0.45
0.35 0.35 0.36 0.37 0.37 0.36 0.33 0.31 0.31 0.31 0.30 0.30 0.31 0.32 0.34 0.36 0.37 0.39 0.41 0.43 0.45 0.47 0.49 0.50 0.52 0.54 0.53 0.54 0.55 0.54 0.52 0.52 0.53 0.50 0.50 0.49 0.51 0.51 0.49 0.46 0.44 0.45 0.42
0.34 0.35 0.36 0.37 0.35 0.32 0.32 0.32 0.31 0.30 0.30 0.32 0.32 0.35 0.36 0.38 0.40 0.42 0.46 0.48 0.50 0.52 0.55 0.57 0.59 0.61 0.62 0.61 0.59 0.57 0.56 0.55 0.53 0.51 0.50 0.51 0.51 0.49 0.46 0.47 0.45 0.45 0.43
0.34 0.35 0.36 0.32 0.31 0.30 0.31 0.30 0.30 0.30 0.31 0.32 0.34 0.35 0.36 0.40 0.43 0.48 0.51 0.52 0.55 0.56 0.57 0.61 0.62 0.62 0.62 0.63 0.65 0.65 0.65 0.60 0.56 0.54 0.54 0.52 0.54 0.53 0.49 0.46 0.48 0.45 0.40
0.35 0.33 0.30 0.30 0.29 0.30 0.31 0.31 0.31 0.31 0.32 0.34 0.35 0.37 0.39 0.43 0.47 0.51 0.55 0.57 0.57 0.58 0.59 0.58 0.57 0.59 0.61 0.58 0.60 0.63 0.64 0.65 0.68 0.63 0.57 0.56 0.54 0.55 0.52 0.47 0.47 0.46 0.41
0.30 0.29 0.29 0.29 0.29 0.31 0.30 0.31 0.31 0.32 0.34 0.35 0.37 0.41 0.43 0.47 0.52 0.55 0.59 0.60 0.58 0.57 0.57 0.58 0.56 0.57 0.60 0.61 0.62 0.62 0.62 0.61 0.62 0.63 0.62 0.61 0.62 0.63 0.59 0.56 0.54 0.51 0.52
0.29 0.30 0.31 0.31 0.31 0.31 0.30 0.30 0.32 0.34 0.35 0.37 0.41 0.43 0.45 0.50 0.57 0.58 0.57 0.57 0.55 0.55 0.55 0.57 0.56 0.57 0.62 0.62 0.61 0.63 0.63 0.61 0.67 0.65 0.65 0.63 0.63 0.63 0.62 0.59 0.51 0.49 0.45
0.32 0.32 0.33 0.35 0.35 0.32 0.31 0.32 0.35 0.36 0.37 0.41 0.43 0.49 0.53 0.54 0.55 0.56 0.57 0.57 0.54 0.53 0.53 0.54 0.54 0.60 0.61 0.60 0.60 0.61 0.62 0.61 0.60 0.59 0.58 0.57 0.59 0.63 0.62 0.60 0.52 0.47 0.47
0.34 0.34 0.37 0.38 0.35 0.33 0.33 0.34 0.35 0.37 0.41 0.45 0.49 0.51 0.53 0.54 0.56 0.56 0.58 0.54 0.52 0.51 0.51 0.50 0.52 0.59 0.61 0.55 0.57 0.58 0.56 0.61 0.56 0.53 0.52 0.52 0.51 0.54 0.57 0.60 0.57 0.52 0.46
0.35 0.36 0.38 0.38 0.34 0.33 0.32 0.35 0.38 0.41 0.46 0.48 0.48 0.50 0.53 0.55 0.56 0.54 0.55 0.52 0.52 0.50 0.51 0.51 0.52 0.58 0.60 0.53 0.51 0.52 0.52 0.56 0.54 0.51 0.47 0.45 0.46 0.49 0.52 0.54 0.54 0.55 0.55
0.36 0.37 0.39 0.37 0.33 0.32 0.33 0.36 0.41 0.47 0.48 0.47 0.48 0.48 0.50 0.53 0.52 0.55 0.51 0.48 0.48 0.49 0.49 0.50 0.52 0.58 0.57 0.54 0.56 0.49 0.50 0.51 0.49 0.48 0.47 0.48 0.48 0.50 0.53 0.54 0.54 0.56 0.57
0.36 0.37 0.38 0.34 0.32 0.32 0.36 0.41 0.47 0.47 0.47 0.47 0.47 0.47 0.48 0.50 0.50 0.48 0.46 0.47 0.49 0.48 0.49 0.49 0.54 0.56 0.55 0.54 0.51 0.52 0.50 0.50 0.50 0.50 0.49 0.52 0.56 0.53 0.51 0.53 0.50 0.51 0.53
0.37 0.39 0.37 0.33 0.31 0.32 0.37 0.46 0.49 0.51 0.51 0.49 0.49 0.49 0.46 0.46 0.45 0.49 0.47 0.48 0.49 0.47 0.48 0.48 0.50 0.49 0.47 0.49 0.47 0.47 0.49 0.49 0.49 0.55 0.53 0.53 0.53 0.54 0.52 0.53 0.53 0.55 0.50
0.38 0.40 0.35 0.32 0.30 0.33 0.42 0.46 0.50 0.52 0.53 0.54 0.53 0.51 0.49 0.48 0.47 0.52 0.49 0.49 0.49 0.47 0.44 0.43 0.44 0.44 0.42 0.41 0.43 0.45 0.47 0.49 0.51 0.55 0.55 0.56 0.54 0.55 0.56 0.60 0.60 0.56 0.57
0.41 0.40 0.34 0.30 0.31 0.36 0.45 0.45 0.43 0.47 0.52 0.53 0.52 0.50 0.49 0.49 0.50 0.50 0.50 0.50 0.47 0.47 0.41 0.42 0.43 0.43 0.39 0.39 0.42 0.45 0.48 0.51 0.56 0.57 0.56 0.55 0.56 0.59 0.58 0.58 0.58 0.56 0.58
0.44 0.39 0.33 0.30 0.34 0.41 0.46 0.46 0.46 0.45 0.44 0.45 0.50 0.50 0.51 0.52 0.51 0.52 0.49 0.48 0.43 0.43 0.42 0.41 0.42 0.43 0.40 0.39 0.40 0.44 0.50 0.52 0.54 0.54 0.54 0.55 0.56 0.57 0.57 0.58 0.60 0.61 0.62
0.42 0.36 0.32 0.32 0.36 0.45 0.47 0.46 0.47 0.46 0.45 0.46 0.48 0.49 0.52 0.51 0.50 0.50 0.49 0.45 0.42 0.41 0.42 0.41 0.42 0.43 0.41 0.41 0.41 0.46 0.50 0.52 0.54 0.54 0.58 0.56 0.59 0.58 0.55 0.58 0.59 0.60 0.61
0.41 0.35 0.32 0.32 0.39 0.46 0.46 0.45 0.45 0.45 0.45 0.45 0.45 0.46 0.49 0.49 0.45 0.46 0.47 0.46 0.44 0.43 0.43 0.42 0.42 0.43 0.43 0.41 0.41 0.44 0.48 0.51 0.52 0.56 0.57 0.58 0.57 0.55 0.51 0.53 0.56 0.55 0.55
0.39 0.33 0.32 0.33 0.43 0.46 0.45 0.45 0.45 0.45 0.44 0.45 0.46 0.48 0.47 0.46 0.46 0.46 0.47 0.47 0.47 0.45 0.44 0.43 0.42 0.43 0.43 0.41 0.41 0.41 0.46 0.49 0.52 0.55 0.56 0.55 0.53 0.50 0.50 0.50 0.54 0.53 0.52
0.36 0.32 0.31 0.35 0.45 0.46 0.46 0.46 0.45 0.45 0.45 0.45 0.44 0.45 0.47 0.47 0.47 0.47 0.48 0.49 0.49 0.50 0.49 0.46 0.43 0.43 0.43 0.42 0.40 0.40 0.43 0.47 0.50 0.52 0.53 0.52 0.49 0.48 0.50 0.49 0.51 0.50 0.51
0.33 0.31 0.31 0.38 0.46 0.46 0.45 0.46 0.45 0.45 0.44 0.43 0.43 0.45 0.47 0.47 0.48 0.49 0.49 0.51 0.52 0.52 0.53 0.50 0.47 0.44 0.44 0.43 0.42 0.41 0.42 0.44 0.50 0.52 0.51 0.48 0.49 0.46 0.49 0.47 0.45 0.47 0.47
0.32 0.30 0.32 0.40 0.46 0.45 0.45 0.45 0.45 0.45 0.40 0.40 0.44 0.47 0.47 0.48 0.49 0.50 0.51 0.53 0.54 0.55 0.55 0.54 0.50 0.48 0.44 0.43 0.42 0.42 0.43 0.44 0.48 0.49 0.51 0.48 0.46 0.44 0.46 0.48 0.48 0.47 0.47
0.31 0.31 0.32 0.42 0.45 0.44 0.45 0.45 0.44 0.42 0.39 0.44 0.46 0.47 0.48 0.50 0.50 0.51 0.53 0.55 0.55 0.56 0.57 0.57 0.55 0.52 0.48 0.44 0.42 0.41 0.42 0.43 0.43 0.47 0.48 0.47 0.45 0.43 0.43 0.44 0.47 0.48 0.47
0.30 0.31 0.34 0.44 0.45 0.45 0.45 0.44 0.42 0.40 0.42 0.46 0.47 0.48 0.49 0.50 0.51 0.52 0.54 0.55 0.56 0.58 0.59 0.60 0.59 0.56 0.53 0.49 0.45 0.43 0.41 0.41 0.42 0.45 0.47 0.47 0.41 0.39 0.41 0.43 0.47 0.48 0.49

GFSGL_prec_pwat_072.txt.gz
Precipitable_Water
0.38 0.38 0.37 0.38 0.39 0.40 0.40 0.40 0.39 0.38 0.37 0.34 0.32 0.30 0.29 0.29 0.29 0.29 0.29 0.31 0.32 0.34 0.36 0.38 0.37 0.39 0.39 0.41 0.43 0.43 0.43 0.43 0.37 0.38 0.44 0.47 0.46 0.46 0.46 0.46 0.46 0.46 0.47
0.37 0.36 0.35 0.36 0.37 0.37 0.38 0.38 0.38 0.35 0.34 0.32 0.31 0.30 0.30 0.30 0.31 0.31 0.31 0.33 0.34 0.36 0.37 0.38 0.38 0.41 0.42 0.44 0.45 0.45 0.46 0.47 0.45 0.40 0.47 0.49 0.49 0.50 0.49 0.47 0.45 0.46 0.46
0.36 0.34 0.34 0.35 0.36 0.37 0.38 0.37 0.35 0.32 0.32 0.32 0.31 0.30 0.30 0.31 0.32 0.34 0.36 0.36 0.37 0.38 0.40 0.41 0.42 0.44 0.43 0.46 0.47 0.47 0.49 0.50 0.50 0.48 0.47 0.51 0.52 0.53 0.50 0.50 0.48 0.46 0.47
0.33 0.33 0.34 0.36 0.36 0.36 0.35 0.32 0.31 0.32 0.31 0.30 0.30 0.31 0.32 0.33 0.37 0.37 0.38 0.39 0.40 0.42 0.45 0.47 0.48 0.49 0.49 0.50 0.51 0.52 0.53 0.53 0.53 0.51 0.49 0.49 0.51 0.53 0.53 0.48 0.45 0.46 0.44
0.32 0.33 0.34 0.35 0.35 0.31 0.31 0.30 0.30 0.31 0.31 0.31 0.31 0.32 0.34 0.37 0.37 0.37 0.41 0.43 0.45 0.47 0.50 0.52 0.54 0.57 0.59 0.62 0.63 0.61 0.60 0.56 0.56 0.54 0.51 0.52 0.51 0.51 0.50 0.51 0.48 0.46 0.44
0.33 0.33 0.34 0.31 0.29 0.29 0.29 0.30 0.30 0.30 0.30 0.31 0.32 0.34 0.36 0.37 0.38 0.43 0.47 0.48 0.51 0.52 0.53 0.56 0.58 0.60 0.61 0.61 0.62 0.63 0.63 0.60 0.56 0.54 0.53 0.51 0.53 0.52 0.54 0.54 0.53 0.47 0.38
0.33 0.33 0.29 0.29 0.29 0.30 0.30 0.31 0.31 0.31 0.32 0.32 0.35 0.36 0.36 0.40 0.44 0.48 0.51 0.53 0.55 0.56 0.57 0.58 0.56 0.58 0.60 0.59 0.56 0.58 0.60 0.61 0.61 0.60 0.55 0.55 0.56 0.60 0.59 0.57 0.53 0.51 0.42
0.31 0.29 0.30 0.31 0.30 0.31 0.33 0.33 0.32 0.32 0.32 0.35 0.36 0.38 0.40 0.43 0.47 0.50 0.55 0.58 0.57 0.56 0.57 0.57 0.56 0.56 0.56 0.56 0.53 0.56 0.60 0.62 0.63 0.63 0.63 0.63 0.63 0.63 0.63 0.60 0.57 0.54 0.52
0.29 0.30 0.32 0.32 0.32 0.33 0.34 0.33 0.32 0.32 0.35 0.36 0.38 0.41 0.44 0.47 0.53 0.56 0.56 0.56 0.55 0.56 0.56 0.56 0.56 0.53 0.55 0.54 0.56 0.56 0.57 0.58 0.65 0.69 0.72 0.65 0.67 0.65 0.64 0.60 0.54 0.50 0.46
0.30 0.32 0.33 0.34 0.34 0.35 0.35 0.32 0.33 0.35 0.35 0.38 0.41 0.47 0.51 0.51 0.54 0.55 0.56 0.56 0.52 0.54 0.52 0.52 0.53 0.52 0.54 0.54 0.57 0.57 0.52 0.54 0.60 0.66 0.68 0.69 0.68 0.68 0.66 0.62 0.55 0.48 0.47
0.34 0.34 0.34 0.35 0.36 0.36 0.33 0.33 0.35 0.35 0.37 0.42 0.48 0.51 0.51 0.53 0.55 0.56 0.57 0.53 0.53 0.50 0.48 0.47 0.49 0.51 0.52 0.55 0.60 0.57 0.51 0.57 0.57 0.60 0.59 0.60 0.57 0.54 0.54 0.58 0.61 0.54 0.49
0.35 0.34 0.34 0.36 0.37 0.35 0.33 0.33 0.33 0.35 0.42 0.47 0.48 0.48 0.51 0.54 0.54 0.55 0.53 0.51 0.49 0.46 0.46 0.49 0.48 0.50 0.50 0.54 0.60 0.58 0.56 0.54 0.54 0.52 0.49 0.46 0.44 0.44 0.49 0.53 0.58 0.61 0.60
0.35 0.35 0.36 0.37 0.38 0.35 0.32 0.31 0.32 0.42 0.47 0.46 0.46 0.47 0.48 0.51 0.50 0.54 0.50 0.52 0.50 0.48 0.49 0.49 0.50 0.48 0.53 0.57 0.55 0.56 0.54 0.50 0.50 0.48 0.46 0.47 0.50 0.51 0.50 0.51 0.56 0.58 0.59
0.35 0.36 0.37 0.39 0.37 0.34 0.32 0.32 0.39 0.46 0.46 0.46 0.46 0.46 0.47 0.48 0.48 0.48 0.51 0.53 0.50 0.49 0.49 0.50 0.47 0.51 0.55 0.56 0.56 0.54 0.51 0.49 0.47 0.45 0.46 0.50 0.55 0.55 0.52 0.53 0.50 0.51 0.50
0.37 0.37 0.40 0.40 0.35 0.31 0.30 0.36 0.46 0.50 0.49 0.47 0.48 0.49 0.47 0.45 0.47 0.51 0.51 0.50 0.48 0.49 0.49 0.44 0.44 0.46 0.47 0.47 0.48 0.49 0.51 0.49 0.47 0.51 0.52 0.53 0.53 0.54 0.52 0.54 0.51 0.49 0.44
0.37 0.39 0.41 0.38 0.33 0.30 0.32 0.40 0.50 0.50 0.51 0.52 0.53 0.52 0.52 0.52 0.53 0.53 0.51 0.53 0.49 0.47 0.46 0.39 0.40 0.43 0.42 0.40 0.39 0.43 0.47 0.47 0.51 0.53 0.55 0.55 0.54 0.53 0.52 0.53 0.52 0.48 0.45
0.38 0.41 0.41 0.36 0.31 0.30 0.35 0.44 0.43 0.46 0.50 0.50 0.52 0.52 0.52 0.51 0.52 0.53 0.51 0.50 0.47 0.46 0.41 0.40 0.39 0.42 0.41 0.39 0.38 0.40 0.42 0.50 0.54 0.55 0.54 0.56 0.57 0.57 0.57 0.57 0.57 0.55 0.54
0.42 0.44 0.40 0.34 0.31 0.33 0.43 0.46 0.45 0.43 0.42 0.44 0.49 0.50 0.50 0.51 0.52 0.50 0.50 0.48 0.43 0.43 0.42 0.40 0.39 0.40 0.41 0.38 0.38 0.40 0.45 0.49 0.52 0.55 0.55 0.56 0.56 0.56 0.57 0.56 0.56 0.56 0.56
0.44 0.43 0.37 0.33 0.32 0.37 0.46 0.46 0.45 0.44 0.44 0.44 0.46 0.48 0.48 0.49 0.50 0.49 0.49 0.46 0.44 0.42 0.42 0.41 0.41 0.41 0.41 0.39 0.39 0.41 0.47 0.49 0.51 0.55 0.56 0.57 0.59 0.59 0.58 0.59 0.61 0.63 0.62
0.44 0.40 0.35 0.33 0.32 0.41 0.46 0.45 0.45 0.44 0.44 0.44 0.44 0.45 0.45 0.49 0.45 0.46 0.48 0.47 0.46 0.45 0.43 0.42 0.41 0.42 0.41 0.39 0.39 0.40 0.45 0.49 0.53 0.56 0.58 0.59 0.59 0.58 0.56 0.57 0.59 0.60 0.62
0.42 0.36 0.34 0.32 0.33 0.44 0.46 0.45 0.44 0.44 0.44 0.43 0.42 0.44 0.48 0.46 0.46 0.46 0.47 0.47 0.47 0.47 0.47 0.44 0.43 0.42 0.42 0.40 0.38 0.38 0.43 0.46 0.52 0.55 0.56 0.56 0.54 0.51 0.52 0.56 0.55 0.57 0.60
0.38 0.33 0.31 0.31 0.37 0.46 0.46 0.45 0.45 0.44 0.44 0.39 0.42 0.46 0.48 0.47 0.47 0.48 0.48 0.49 0.50 0.51 0.51 0.49 0.46 0.44 0.42 0.40 0.38 0.38 0.41 0.44 0.49 0.53 0.55 0.52 0.49 0.50 0.50 0.53 0.53 0.55 0.53
0.33 0.31 0.30 0.32 0.40 0.46 0.44 0.45 0.44 0.45 0.41 0.42 0.45 0.46 0.47 0.47 0.48 0.49 0.49 0.51 0.52 0.52 0.53 0.53 0.49 0.46 0.44 0.42 0.41 0.39 0.40 0.44 0.47 0.52 0.52 0.49 0.48 0.49 0.48 0.47 0.49 0.50 0.49
0.31 0.31 0.30 0.33 0.42 0.45 0.44 0.44 0.44 0.39 0.41 0.45 0.46 0.47 0.47 0.48 0.49 0.50 0.51 0.53 0.54 0.54 0.55 0.55 0.52 0.49 0.45 0.42 0.41 0.40 0.42 0.45 0.50 0.51 0.50 0.48 0.47 0.47 0.48 0.47 0.47 0.47 0.47
0.30 0.30 0.30 0.36 0.43 0.44 0.44 0.44 0.40 0.41 0.44 0.45 0.46 0.47 0.48 0.49 0.50 0.51 0.52 0.54 0.55 0.55 0.56 0.56 0.55 0.51 0.48 0.44 0.41 0.40 0.42 0.44 0.46 0.50 0.49 0.48 0.46 0.43 0.47 0.48 0.51 0.48 0.46
0.30 0.30 0.31 0.40 0.44 0.45 0.44 0.43 0.40 0.41 0.44 0.46 0.47 0.48 0.49 0.49 0.50 0.52 0.53 0.54 0.55 0.56 0.58 0.59 0.58 0.52 0.51 0.48 0.44 0.41 0.41 0.42 0.43 0.44 0.47 0.47 0.45 0.41 0.43 0.47 0.50 0.49 0.48

GFSGL_prec_pwat_075.txt.gz
Precipitable_Water
0.38 0.39 0.38 0.37 0.37 0.38 0.38 0.39 0.38 0.38 0.38 0.37 0.36 0.33 0.31 0.30 0.31 0.30 0.30 0.30 0.30 0.31 0.33 0.34 0.35 0.38 0.39 0.38 0.40 0.40 0.40 0.39 0.34 0.32 0.41 0.44 0.43 0.44 0.46 0.48 0.47 0.45 0.44
0.38 0.39 0.38 0.36 0.35 0.35 0.36 0.37 0.38 0.36 0.35 0.32 0.31 0.31 0.30 0.30 0.30 0.30 0.30 0.32 0.33 0.34 0.35 0.37 0.37 0.39 0.38 0.40 0.41 0.41 0.42 0.43 0.41 0.34 0.41 0.42 0.44 0.47 0.47 0.48 0.49 0.50 0.48
0.40 0.39 0.35 0.33 0.33 0.34 0.34 0.34 0.34 0.30 0.30 0.30 0.30 0.29 0.29 0.30 0.30 0.32 0.35 0.36 0.37 0.37 0.38 0.37 0.38 0.40 0.41 0.43 0.44 0.44 0.45 0.46 0.46 0.43 0.42 0.47 0.48 0.50 0.49 0.51 0.51 0.51 0.52
0.37 0.32 0.31 0.32 0.33 0.33 0.33 0.31 0.29 0.29 0.29 0.29 0.30 0.30 0.31 0.31 0.33 0.36 0.37 0.37 0.37 0.39 0.41 0.43 0.44 0.46 0.46 0.47 0.48 0.48 0.49 0.49 0.51 0.50 0.50 0.51 0.52 0.54 0.55 0.50 0.48 0.53 0.50
0.31 0.31 0.31 0.33 0.33 0.31 0.29 0.30 0.30 0.30 0.31 0.32 0.31 0.32 0.34 0.35 0.37 0.38 0.39 0.39 0.42 0.43 0.46 0.49 0.51 0.52 0.56 0.58 0.59 0.59 0.59 0.55 0.54 0.53 0.51 0.53 0.52 0.51 0.50 0.53 0.50 0.52 0.52
0.31 0.32 0.33 0.32 0.29 0.29 0.30 0.30 0.30 0.32 0.32 0.32 0.31 0.33 0.34 0.36 0.38 0.41 0.44 0.45 0.48 0.48 0.50 0.54 0.57 0.58 0.58 0.60 0.59 0.62 0.60 0.57 0.53 0.53 0.53 0.50 0.54 0.54 0.54 0.52 0.52 0.50 0.45
0.32 0.32 0.31 0.30 0.29 0.30 0.31 0.31 0.32 0.32 0.32 0.31 0.33 0.35 0.35 0.36 0.41 0.45 0.49 0.51 0.53 0.55 0.55 0.55 0.56 0.56 0.59 0.57 0.55 0.55 0.55 0.55 0.55 0.54 0.51 0.53 0.52 0.55 0.55 0.54 0.53 0.53 0.49
0.32 0.31 0.30 0.30 0.31 0.31 0.31 0.32 0.33 0.32 0.31 0.32 0.35 0.35 0.36 0.40 0.46 0.50 0.54 0.56 0.55 0.56 0.56 0.55 0.56 0.56 0.55 0.55 0.53 0.53 0.52 0.53 0.54 0.60 0.61 0.60 0.62 0.61 0.60 0.60 0.58 0.57 0.58
0.31 0.30 0.31 0.32 0.31 0.31 0.32 0.33 0.33 0.31 0.32 0.34 0.34 0.36 0.40 0.45 0.52 0.53 0.54 0.55 0.53 0.54 0.55 0.56 0.54 0.53 0.52 0.52 0.51 0.52 0.52 0.51 0.60 0.62 0.62 0.64 0.67 0.68 0.67 0.63 0.55 0.52 0.48
0.31 0.32 0.34 0.34 0.33 0.33 0.34 0.34 0.32 0.34 0.33 0.33 0.35 0.44 0.49 0.49 0.51 0.53 0.55 0.55 0.50 0.51 0.50 0.51 0.49 0.49 0.50 0.51 0.50 0.49 0.48 0.52 0.56 0.56 0.58 0.64 0.68 0.70 0.69 0.63 0.60 0.51 0.48
0.35 0.35 0.36 0.36 0.35 0.36 0.37 0.35 0.34 0.32 0.31 0.34 0.44 0.48 0.50 0.51 0.51 0.54 0.53 0.53 0.51 0.49 0.49 0.45 0.47 0.48 0.49 0.52 0.52 0.51 0.50 0.58 0.56 0.56 0.56 0.56 0.63 0.64 0.65 0.69 0.66 0.59 0.52
0.36 0.36 0.36 0.37 0.37 0.39 0.38 0.35 0.33 0.30 0.33 0.41 0.45 0.46 0.49 0.51 0.53 0.52 0.51 0.50 0.51 0.50 0.47 0.46 0.47 0.50 0.50 0.49 0.51 0.53 0.59 0.60 0.55 0.51 0.50 0.50 0.49 0.48 0.52 0.54 0.59 0.59 0.58
0.36 0.36 0.37 0.37 0.39 0.41 0.37 0.32 0.28 0.33 0.40 0.44 0.44 0.45 0.47 0.50 0.51 0.50 0.51 0.51 0.54 0.50 0.50 0.48 0.49 0.47 0.47 0.52 0.57 0.58 0.58 0.53 0.48 0.43 0.44 0.45 0.49 0.50 0.50 0.49 0.51 0.53 0.54
0.36 0.37 0.38 0.38 0.41 0.40 0.35 0.31 0.31 0.40 0.45 0.44 0.44 0.44 0.46 0.48 0.49 0.50 0.53 0.54 0.54 0.52 0.49 0.49 0.47 0.43 0.46 0.50 0.52 0.54 0.55 0.50 0.46 0.43 0.43 0.46 0.48 0.49 0.50 0.51 0.48 0.48 0.48
0.37 0.38 0.37 0.40 0.41 0.36 0.33 0.31 0.39 0.49 0.49 0.45 0.46 0.47 0.46 0.45 0.50 0.52 0.52 0.51 0.51 0.49 0.48 0.45 0.40 0.39 0.41 0.44 0.45 0.46 0.47 0.47 0.44 0.47 0.47 0.49 0.50 0.51 0.49 0.52 0.51 0.49 0.46
0.38 0.38 0.39 0.42 0.38 0.34 0.30 0.34 0.48 0.49 0.49 0.50 0.50 0.49 0.51 0.52 0.52 0.52 0.52 0.51 0.50 0.47 0.44 0.40 0.38 0.37 0.39 0.40 0.38 0.37 0.40 0.41 0.43 0.50 0.51 0.52 0.53 0.53 0.52 0.53 0.52 0.49 0.45
0.39 0.39 0.43 0.40 0.35 0.30 0.31 0.40 0.42 0.45 0.47 0.47 0.49 0.50 0.50 0.49 0.49 0.50 0.50 0.50 0.48 0.47 0.41 0.40 0.39 0.38 0.39 0.39 0.37 0.36 0.37 0.41 0.48 0.50 0.52 0.54 0.56 0.56 0.55 0.54 0.52 0.50 0.45
0.41 0.43 0.42 0.36 0.33 0.32 0.35 0.44 0.45 0.43 0.42 0.42 0.47 0.48 0.49 0.48 0.50 0.49 0.48 0.49 0.44 0.45 0.44 0.41 0.39 0.39 0.39 0.37 0.36 0.36 0.39 0.45 0.48 0.52 0.54 0.56 0.57 0.57 0.55 0.54 0.54 0.53 0.51
0.43 0.42 0.39 0.35 0.33 0.33 0.40 0.46 0.45 0.43 0.44 0.43 0.43 0.43 0.45 0.48 0.51 0.48 0.48 0.46 0.44 0.44 0.44 0.43 0.41 0.40 0.39 0.37 0.36 0.37 0.43 0.45 0.48 0.51 0.56 0.58 0.58 0.58 0.57 0.59 0.59 0.58 0.57
0.43 0.40 0.36 0.32 0.31 0.34 0.42 0.45 0.44 0.43 0.43 0.41 0.39 0.43 0.46 0.48 0.44 0.45 0.47 0.47 0.46 0.46 0.46 0.46 0.44 0.42 0.40 0.38 0.36 0.37 0.42 0.44 0.50 0.54 0.56 0.58 0.59 0.58 0.57 0.60 0.60 0.60 0.57
0.41 0.34 0.32 0.30 0.31 0.37 0.45 0.43 0.43 0.43 0.42 0.40 0.44 0.46 0.48 0.46 0.45 0.46 0.47 0.48 0.48 0.48 0.48 0.48 0.47 0.44 0.41 0.39 0.37 0.36 0.41 0.45 0.50 0.53 0.55 0.55 0.56 0.55 0.59 0.58 0.63 0.64 0.63
0.36 0.32 0.30 0.29 0.33 0.41 0.45 0.44 0.43 0.41 0.38 0.42 0.45 0.46 0.47 0.47 0.47 0.47 0.48 0.49 0.50 0.51 0.51 0.50 0.49 0.46 0.42 0.39 0.37 0.36 0.39 0.42 0.49 0.53 0.53 0.51 0.52 0.53 0.55 0.56 0.57 0.61 0.62
0.33 0.31 0.28 0.30 0.36 0.44 0.44 0.44 0.42 0.39 0.41 0.44 0.45 0.46 0.46 0.46 0.47 0.48 0.48 0.50 0.51 0.52 0.53 0.53 0.50 0.47 0.44 0.41 0.40 0.38 0.38 0.42 0.48 0.51 0.49 0.48 0.48 0.50 0.52 0.53 0.53 0.54 0.60
0.31 0.29 0.28 0.32 0.39 0.44 0.43 0.43 0.40 0.41 0.43 0.44 0.45 0.46 0.46 0.47 0.48 0.49 0.50 0.52 0.52 0.53 0.54 0.54 0.49 0.48 0.45 0.41 0.40 0.39 0.41 0.44 0.47 0.49 0.49 0.48 0.46 0.48 0.48 0.48 0.48 0.51 0.55
0.30 0.28 0.29 0.36 0.42 0.43 0.43 0.40 0.40 0.42 0.44 0.45 0.46 0.46 0.47 0.48 0.49 0.50 0.51 0.53 0.53 0.54 0.55 0.56 0.50 0.48 0.47 0.42 0.39 0.39 0.40 0.43 0.46 0.48 0.47 0.47 0.46 0.45 0.48 0.49 0.48 0.51 0.53
0.28 0.27 0.31 0.40 0.43 0.43 0.42 0.39 0.41 0.43 0.44 0.45 0.46 0.47 0.48 0.49 0.50 0.51 0.52 0.53 0.54 0.55 0.56 0.57 0.54 0.49 0.49 0.46 0.42 0.39 0.40 0.42 0.45 0.46 0.47 0.46 0.43 0.44 0.47 0.48 0.47 0.48 0.50